Simultaneous Nadir Overpasses (SNOs) Predictions

Prediction of SNOs between NOAA-19 and NPP Satellite Orbit:

Table of predicted SNOs for the next 14.0 days since TLE Epoch: 6/10/2023
Index Date (NOAA-19) Time (NOAA-19) Lat,Lon (NOAA-19) SZA (NOAA-19 ) Date (NPP) Time (NPP) Lat,Lon (NPP) SZA (NPP ) Distance(km) Time Diff (sec)
1 06/11/2023 02:39:40 75.10, 125.61 52.50 06/11/2023 02:40:52 75.14, 126.51 52.45 25.95 72
2 06/11/2023 03:30:35 -75.26, -66.64 127.39 06/11/2023 03:31:39 -75.27, -66.58 127.40 2.43 64
3 06/11/2023 04:21:35 75.29, 100.71 52.63 06/11/2023 04:22:25 75.29, 100.69 52.62 0.62 50
4 06/11/2023 05:12:33 -75.31, -91.97 127.36 06/11/2023 05:13:09 -75.28, -91.98 127.39 2.67 36
5 06/11/2023 06:03:34 75.29, 75.23 52.63 06/11/2023 06:03:55 75.30, 75.29 52.62 1.81 21
6 06/11/2023 06:54:32 -75.31,-117.46 127.36 06/11/2023 06:54:39 -75.29,-117.38 127.39 3.04 7
7 06/11/2023 07:45:32 75.34, 49.89 52.66 06/11/2023 07:45:25 75.30, 49.89 52.63 4.02 7
8 06/11/2023 08:36:31 -75.31,-142.94 127.37 06/11/2023 08:36:10 -75.35,-142.92 127.33 3.79 21
9 06/11/2023 09:27:31 75.34, 24.41 52.66 06/11/2023 09:26:56 75.36, 24.35 52.69 2.52 35
10 06/11/2023 10:18:29 -75.36,-168.28 127.33 06/11/2023 10:17:40 -75.35,-168.32 127.32 1.40 49
11 06/11/2023 11:09:30 75.35, -1.07 52.66 06/11/2023 11:08:26 75.37, -1.05 52.69 2.32 64
12 06/11/2023 12:00:26 -75.45, 166.54 127.27 06/11/2023 11:59:12 -75.46, 166.00 127.21 15.13 74



Historial Predications of SNOs between NOAA-19 and NPP
